カタリナ-リニア彗星

227P/Catalina-LINEAR (2017)

English version
Home page
Updated on September 22, 2018

---------------------------------------------------------------------

・ プロフィール

・ 写真集

・ 軌道要素

Epoch 2017 June 16.0 TT = JDT 2457920.5
T 2017 June 22.17172 TT                                 MPCW
q   1.7879235            (2000.0)            P               Q
n   0.14526637     Peri.   90.26009     -0.76177097     -0.64200212
a   3.5839284      Node    49.80031     +0.53995046     -0.70323071
e   0.5011275      Incl.    6.52708     +0.35799230     -0.30545025
P   6.78
From 144 observations 1997 Jan. 15-2016 Dec. 18, mean residual 0".5.

・ 光度変化

        m1 = 15.0 + 5 logΔ + 10.0 log r

---------------------------------------------------------------------

軌道要素はM.P.E.C. 2017-A77に掲載されたものです。
光度グラフはComet for Windowsで作成したものです。

---------------------------------------------------------------------

Copyright(C) Seiichi Yoshida (comet@aerith.net). All rights reserved.